Simultaneous Nadir Overpasses (SNOs) Predictions

Prediction of SNOs between GOES-14 and NOAA-20 Satellite Orbit:

Table of predicted SNOs for the next 14.0 days since TLE Epoch: 8/2/2019
Index Date Time (GOES-14) GOES-14 Lat,Lon NOAA-20 Lat,Lon Distance(km) Time Diff (sec)
1 08/02/2019 20:23:13 0.31,-104.79 0.41,-104.35 50.18 80
2 08/05/2019 08:23:34 -0.32,-104.61 -0.21,-105.08 53.37 80
3 08/06/2019 08:07:28 -0.31,-104.61 -1.21,-100.54 463.16 80
4 08/07/2019 20:26:44 0.34,-104.78 0.07,-105.85 122.94 80
5 08/08/2019 20:10:40 0.33,-104.78 1.13,-101.33 394.11 80
6 08/10/2019 08:32:26 -0.36,-104.61 0.07,-106.59 225.36 80
7 08/11/2019 08:13:41 -0.35,-104.61 -0.93,-102.06 291.03 80
8 08/12/2019 20:32:57 0.38,-104.77 -0.20,-107.37 296.22 80
9 08/13/2019 20:16:52 0.37,-104.77 0.80,-102.83 220.91 80
10 08/15/2019 08:38:38 -0.39,-104.62 0.40,-108.09 396.81 80
11 08/16/2019 08:17:12 -0.38,-104.61 -0.60,-103.56 119.76 80




NCC Satellite Simultaneous Nadir Overpasses (SNOs) Prediction Service
